User: anonymous
Location: Unspecified
(0.0000°N, 0.0000°E)
Time: 00:31:24
(UTC+02:00)
Language:

Iridium 75 - Orbit

View from above orbital plane
View from above orbital plane
View from above satellite
View from above satellite

Ground track
Ground track

The orbit data is extracted from the following two-line orbital elements,

1 25346U 98032E   14209.45841334  .00000316  00000-0  10594-3 0  9093
2 25346 086.3984 304.9533 0002315 110.4965 341.7815 14.34214956848495
Epoch (UTC): 28 July 2014 11:00:06
Eccentricity: 0.0002315
inclination: 86.3984°
perigee height: 776 km
apogee height: 779 km
right ascension of ascending node: 304.9533°
argument of perigee: 110.4965°
revolutions per day: 14.34214956
mean anomaly at epoch: 341.7815°
orbit number at epoch: 84849

The dashed part of the orbit path shows where the satellite is in the earth's shadow,  

DLR